Time,TemperatureF,DewpointF,PressureIn,WindDirection,WindDirectionDegrees,WindSpeedMPH,WindSpeedGustMPH,Humidity,HourlyPrecipIn,Conditions,Clouds,dailyrainin,SoftwareType,DateUTC
2013-02-17 00:02:00,7.9,27.1,29.10,East,98,0.0,0.0,24,-99.99,,,-99.99,meteohub,2013-02-17 06:02:00,
2013-02-17 00:07:00,7.9,27.1,29.07,East,98,0.0,0.0,24,-99.99,,,-99.99,meteohub,2013-02-17 06:07:00,
2013-02-17 00:12:00,7.9,27.3,29.07,East,98,0.0,0.0,24,-99.99,,,-99.99,meteohub,2013-02-17 06:12:00,
2013-02-17 00:17:00,7.7,27.3,29.07,East,98,0.0,0.0,24,-99.99,,,-99.99,meteohub,2013-02-17 06:17:00,
2013-02-17 00:22:00,7.5,27.5,29.07,East,96,0.0,0.0,24,-99.99,,,-99.99,meteohub,2013-02-17 06:22:00,
2013-02-17 00:27:00,7.3,27.5,29.07,East,96,0.0,0.0,24,-99.99,,,-99.99,meteohub,2013-02-17 06:27:00,
2013-02-17 00:32:00,7.2,27.5,29.07,East,96,0.0,0.0,24,-99.99,,,-99.99,meteohub,2013-02-17 06:32:00,
2013-02-17 00:37:00,7.0,27.5,29.07,East,96,0.0,0.0,24,-99.99,,,-99.99,meteohub,2013-02-17 06:37:00,
2013-02-17 00:42:00,7.0,27.7,29.07,East,96,0.0,0.0,24,-99.99,,,-99.99,meteohub,2013-02-17 06:42:00,
2013-02-17 00:48:00,6.8,27.7,29.07,East,96,0.0,0.0,24,-99.99,,,-99.99,meteohub,2013-02-17 06:48:00,
2013-02-17 00:53:00,6.8,27.9,29.07,East,96,0.0,0.0,24,-99.99,,,-99.99,meteohub,2013-02-17 06:53:00,
2013-02-17 00:58:00,6.6,27.9,29.07,East,96,0.0,0.0,24,-99.99,,,-99.99,meteohub,2013-02-17 06:58:00,
2013-02-17 01:03:00,6.8,28.0,29.07,East,96,0.0,0.0,24,-99.99,,,-99.99,meteohub,2013-02-17 07:03:00,
2013-02-17 01:08:00,7.0,28.0,29.07,ENE,67,3.0,0.0,24,-99.99,,,-99.99,meteohub,2013-02-17 07:08:00,
2013-02-17 01:14:00,7.2,28.0,29.07,ESE,108,2.0,3.0,24,-99.99,,,-99.99,meteohub,2013-02-17 07:14:00,
2013-02-17 01:19:00,7.7,28.2,29.07,ESE,111,4.0,4.0,24,-99.99,,,-99.99,meteohub,2013-02-17 07:19:00,
2013-02-17 01:24:00,7.9,28.2,29.07,SE,139,3.0,4.0,24,-99.99,,,-99.99,meteohub,2013-02-17 07:24:00,
2013-02-17 01:29:00,8.2,28.2,29.07,ESE,121,3.0,4.0,24,-99.99,,,-99.99,meteohub,2013-02-17 07:29:00,
2013-02-17 01:35:00,8.6,28.2,29.07,ESE,123,3.0,4.0,24,-99.99,,,-99.99,meteohub,2013-02-17 07:35:00,
2013-02-17 01:40:00,8.8,28.2,29.07,SE,126,3.0,4.0,24,-99.99,,,-99.99,meteohub,2013-02-17 07:40:00,
2013-02-17 01:45:00,9.0,28.2,29.07,ESE,103,4.0,4.0,24,-99.99,,,-99.99,meteohub,2013-02-17 07:45:00,
2013-02-17 01:50:00,9.1,28.2,29.07,East,98,3.0,5.0,24,-99.99,,,-99.99,meteohub,2013-02-17 07:50:00,
2013-02-17 01:55:00,9.3,28.2,29.07,SE,128,3.0,5.0,24,-99.99,,,-99.99,meteohub,2013-02-17 07:55:00,
2013-02-17 02:00:00,9.3,28.2,29.07,SE,131,4.0,5.0,24,-99.99,,,-99.99,meteohub,2013-02-17 08:00:00,
2013-02-17 02:06:00,9.5,28.2,29.07,South,170,4.0,5.0,24,-99.99,,,-99.99,meteohub,2013-02-17 08:06:00,
2013-02-17 02:11:00,9.5,28.2,29.07,ESE,112,3.0,6.0,24,-99.99,,,-99.99,meteohub,2013-02-17 08:11:00,
2013-02-17 02:16:00,9.5,28.2,29.07,ESE,113,2.0,6.0,24,-99.99,,,-99.99,meteohub,2013-02-17 08:16:00,
2013-02-17 02:21:00,9.7,28.0,29.07,ESE,117,3.0,6.0,24,-99.99,,,-99.99,meteohub,2013-02-17 08:21:00,
2013-02-17 02:27:00,9.7,28.0,29.07,ESE,108,3.0,4.0,24,-99.99,,,-99.99,meteohub,2013-02-17 08:27:00,
2013-02-17 02:32:00,9.7,28.0,29.07,SE,127,2.0,4.0,24,-99.99,,,-99.99,meteohub,2013-02-17 08:32:00,
2013-02-17 02:37:00,9.7,28.0,29.07,SE,126,0.0,4.0,24,-99.99,,,-99.99,meteohub,2013-02-17 08:37:00,
2013-02-17 02:42:00,9.9,28.0,29.07,ESE,120,2.0,4.0,24,-99.99,,,-99.99,meteohub,2013-02-17 08:42:00,
2013-02-17 02:47:00,9.9,28.0,29.07,ESE,107,3.0,4.0,24,-99.99,,,-99.99,meteohub,2013-02-17 08:47:00,
2013-02-17 02:52:00,9.9,28.0,29.07,ESE,106,3.0,4.0,24,-99.99,,,-99.99,meteohub,2013-02-17 08:52:00,
2013-02-17 02:57:00,9.7,28.0,29.07,East,84,3.0,4.0,24,-99.99,,,-99.99,meteohub,2013-02-17 08:57:00,
2013-02-17 03:02:00,9.7,28.0,29.07,ESE,111,3.0,4.0,24,-99.99,,,-99.99,meteohub,2013-02-17 09:02:00,
2013-02-17 03:07:00,9.7,28.0,29.07,SSE,148,3.0,4.0,24,-99.99,,,-99.99,meteohub,2013-02-17 09:07:00,
2013-02-17 03:12:00,9.7,27.9,29.07,East,99,2.0,6.0,24,-99.99,,,-99.99,meteohub,2013-02-17 09:12:00,
2013-02-17 03:17:00,9.7,27.9,29.07,ESE,113,4.0,6.0,24,-99.99,,,-99.99,meteohub,2013-02-17 09:17:00,
2013-02-17 03:22:00,10.0,27.9,29.07,East,96,3.0,6.0,24,-99.99,,,-99.99,meteohub,2013-02-17 09:22:00,
2013-02-17 03:27:00,10.0,27.9,29.07,ESE,112,3.0,4.0,24,-99.99,,,-99.99,meteohub,2013-02-17 09:27:00,
2013-02-17 03:32:00,10.2,27.9,29.07,East,97,3.0,5.0,24,-99.99,,,-99.99,meteohub,2013-02-17 09:32:00,
2013-02-17 03:37:00,10.4,27.9,29.07,East,98,5.0,5.0,24,-99.99,,,-99.99,meteohub,2013-02-17 09:37:00,
2013-02-17 03:42:00,10.4,27.9,29.07,East,96,3.0,5.0,24,-99.99,,,-99.99,meteohub,2013-02-17 09:42:00,
2013-02-17 03:47:00,10.6,27.9,29.07,ESE,116,3.0,5.0,24,-99.99,,,-99.99,meteohub,2013-02-17 09:47:00,
2013-02-17 03:52:00,10.8,27.9,29.04,ESE,117,5.0,6.0,24,-99.99,,,-99.99,meteohub,2013-02-17 09:52:00,
2013-02-17 03:57:00,10.8,27.7,29.04,ESE,115,2.0,6.0,24,-99.99,,,-99.99,meteohub,2013-02-17 09:57:00,
2013-02-17 04:02:00,10.9,27.9,29.04,ESE,102,5.0,6.0,24,-99.99,,,-99.99,meteohub,2013-02-17 10:02:00,
2013-02-17 04:07:00,10.9,27.7,29.04,ESE,102,3.0,6.0,24,-99.99,,,-99.99,meteohub,2013-02-17 10:07:00,
2013-02-17 04:12:00,11.1,27.7,29.04,ESE,113,3.0,6.0,24,-99.99,,,-99.99,meteohub,2013-02-17 10:12:00,
2013-02-17 04:17:00,11.1,27.7,29.04,SE,138,3.0,6.0,24,-99.99,,,-99.99,meteohub,2013-02-17 10:17:00,
2013-02-17 04:22:00,11.3,27.7,29.04,ESE,118,4.0,6.0,24,-99.99,,,-99.99,meteohub,2013-02-17 10:22:00,
2013-02-17 04:27:00,11.3,27.7,29.04,SE,137,4.0,6.0,24,-99.99,,,-99.99,meteohub,2013-02-17 10:27:00,
2013-02-17 04:32:00,11.3,27.7,29.04,SE,137,3.0,6.0,24,-99.99,,,-99.99,meteohub,2013-02-17 10:32:00,
2013-02-17 04:37:00,11.3,27.7,29.04,SE,127,4.0,6.0,24,-99.99,,,-99.99,meteohub,2013-02-17 10:37:00,
2013-02-17 04:42:00,11.5,27.7,29.04,SE,130,4.0,7.0,24,-99.99,,,-99.99,meteohub,2013-02-17 10:42:00,
2013-02-17 04:47:00,11.3,27.7,29.04,ESE,113,3.0,7.0,24,-99.99,,,-99.99,meteohub,2013-02-17 10:47:00,
2013-02-17 04:52:00,11.3,27.7,29.04,SE,129,3.0,7.0,24,-99.99,,,-99.99,meteohub,2013-02-17 10:52:00,
2013-02-17 04:57:00,11.1,27.7,29.04,ESE,108,3.0,7.0,24,-99.99,,,-99.99,meteohub,2013-02-17 10:57:00,
2013-02-17 05:03:00,11.1,27.7,29.04,SE,128,2.0,7.0,24,-99.99,,,-99.99,meteohub,2013-02-17 11:03:00,
2013-02-17 05:08:00,10.9,27.7,29.04,SE,126,3.0,5.0,24,-99.99,,,-99.99,meteohub,2013-02-17 11:08:00,
2013-02-17 05:13:00,10.8,27.7,29.04,ESE,114,3.0,5.0,24,-99.99,,,-99.99,meteohub,2013-02-17 11:13:00,
2013-02-17 05:18:00,10.8,27.7,29.01,ESE,109,2.0,4.0,24,-99.99,,,-99.99,meteohub,2013-02-17 11:18:00,
2013-02-17 05:24:00,10.8,27.7,29.01,East,100,3.0,4.0,24,-99.99,,,-99.99,meteohub,2013-02-17 11:24:00,
2013-02-17 05:29:00,10.8,27.7,29.01,East,95,3.0,5.0,24,-99.99,,,-99.99,meteohub,2013-02-17 11:29:00,
2013-02-17 05:34:00,10.6,27.7,29.01,ESE,110,3.0,6.0,24,-99.99,,,-99.99,meteohub,2013-02-17 11:34:00,
2013-02-17 05:40:00,10.6,27.7,29.01,ESE,113,3.0,6.0,24,-99.99,,,-99.99,meteohub,2013-02-17 11:40:00,
2013-02-17 05:45:00,10.8,27.7,29.01,ESE,106,4.0,6.0,24,-99.99,,,-99.99,meteohub,2013-02-17 11:45:00,
2013-02-17 05:50:00,10.8,27.7,29.01,ESE,119,3.0,6.0,24,-99.99,,,-99.99,meteohub,2013-02-17 11:50:00,
2013-02-17 05:56:00,10.8,27.7,29.01,ESE,122,3.0,4.0,24,-99.99,,,-99.99,meteohub,2013-02-17 11:56:00,
2013-02-17 06:01:00,10.8,27.7,29.01,ESE,112,3.0,4.0,24,-99.99,,,-99.99,meteohub,2013-02-17 12:01:00,
2013-02-17 06:06:00,10.6,27.7,29.01,SE,124,3.0,5.0,24,-99.99,,,-99.99,meteohub,2013-02-17 12:06:00,
2013-02-17 06:11:00,10.6,27.7,29.01,ESE,116,3.0,5.0,24,-99.99,,,-99.99,meteohub,2013-02-17 12:11:00,
2013-02-17 06:17:00,10.4,27.7,29.01,SE,130,3.0,5.0,24,-99.99,,,-99.99,meteohub,2013-02-17 12:17:00,
2013-02-17 06:22:00,10.4,27.7,29.01,ESE,108,2.0,5.0,24,-99.99,,,-99.99,meteohub,2013-02-17 12:22:00,
2013-02-17 06:27:00,10.4,27.7,29.01,ESE,113,3.0,4.0,24,-99.99,,,-99.99,meteohub,2013-02-17 12:27:00,
2013-02-17 06:32:00,10.2,27.5,29.01,East,97,2.0,4.0,24,-99.99,,,-99.99,meteohub,2013-02-17 12:32:00,
2013-02-17 06:37:00,10.2,27.7,29.01,ESE,119,4.0,4.0,24,-99.99,,,-99.99,meteohub,2013-02-17 12:37:00,
2013-02-17 06:42:00,10.2,27.7,29.01,ESE,121,3.0,4.0,24,-99.99,,,-99.99,meteohub,2013-02-17 12:42:00,
2013-02-17 06:47:00,10.2,27.5,29.01,SE,125,3.0,4.0,24,-99.99,,,-99.99,meteohub,2013-02-17 12:47:00,
2013-02-17 06:53:00,10.4,27.7,29.01,ESE,110,3.0,4.0,24,-99.99,,,-99.99,meteohub,2013-02-17 12:53:00,
2013-02-17 06:58:00,10.4,27.5,29.01,SE,137,3.0,4.0,24,-99.99,,,-99.99,meteohub,2013-02-17 12:58:00,
2013-02-17 07:03:00,10.4,27.5,29.01,ESE,112,3.0,4.0,24,-99.99,,,-99.99,meteohub,2013-02-17 13:03:00,
2013-02-17 07:08:00,10.4,27.5,28.98,SE,124,3.0,5.0,24,-99.99,,,-99.99,meteohub,2013-02-17 13:08:00,
2013-02-17 07:14:00,10.4,27.5,28.98,ESE,106,3.0,5.0,24,-99.99,,,-99.99,meteohub,2013-02-17 13:14:00,
2013-02-17 07:19:00,10.8,27.5,28.98,SE,135,3.0,5.0,24,-99.99,,,-99.99,meteohub,2013-02-17 13:19:00,
2013-02-17 07:24:00,10.9,27.5,28.98,SE,124,3.0,6.0,24,-99.99,,,-99.99,meteohub,2013-02-17 13:24:00,
2013-02-17 07:30:00,11.1,27.7,28.98,SE,127,4.0,6.0,24,-99.99,,,-99.99,meteohub,2013-02-17 13:30:00,
2013-02-17 07:35:00,11.3,27.7,28.98,SE,131,3.0,5.0,24,-99.99,,,-99.99,meteohub,2013-02-17 13:35:00,
2013-02-17 07:40:00,11.7,27.5,28.98,ESE,121,4.0,5.0,24,-99.99,,,-99.99,meteohub,2013-02-17 13:40:00,
2013-02-17 07:45:00,11.8,27.5,28.98,East,100,4.0,5.0,24,-99.99,,,-99.99,meteohub,2013-02-17 13:45:00,
2013-02-17 07:51:00,12.0,27.5,28.98,ESE,116,2.0,5.0,24,-99.99,,,-99.99,meteohub,2013-02-17 13:51:00,
2013-02-17 07:56:00,12.2,27.5,28.98,ESE,122,3.0,4.0,24,-99.99,,,-99.99,meteohub,2013-02-17 13:56:00,
2013-02-17 08:01:00,12.6,27.7,28.98,ESE,107,3.0,4.0,24,-99.99,,,-99.99,meteohub,2013-02-17 14:01:00,
2013-02-17 08:06:00,12.7,27.7,28.98,SE,128,5.0,5.0,24,-99.99,,,-99.99,meteohub,2013-02-17 14:06:00,
2013-02-17 08:12:00,12.9,27.7,28.98,SE,124,3.0,5.0,24,-99.99,,,-99.99,meteohub,2013-02-17 14:12:00,
2013-02-17 08:17:00,13.3,27.7,28.98,ESE,120,4.0,6.0,24,-99.99,,,-99.99,meteohub,2013-02-17 14:17:00,
2013-02-17 08:22:00,13.5,27.7,28.98,SSE,155,5.0,6.0,24,-99.99,,,-99.99,meteohub,2013-02-17 14:22:00,
2013-02-17 08:27:00,13.8,27.7,28.98,SE,127,4.0,5.0,24,-99.99,,,-99.99,meteohub,2013-02-17 14:27:00,
2013-02-17 08:32:00,14.4,27.7,28.98,ESE,118,5.0,5.0,24,-99.99,,,-99.99,meteohub,2013-02-17 14:32:00,
2013-02-17 08:37:00,14.7,27.7,28.98,ESE,116,4.0,6.0,24,-99.99,,,-99.99,meteohub,2013-02-17 14:37:00,
2013-02-17 08:42:00,15.1,27.7,28.98,ESE,119,4.0,6.0,24,-99.99,,,-99.99,meteohub,2013-02-17 14:42:00,
2013-02-17 08:47:00,15.3,27.9,28.98,SE,146,4.0,6.0,24,-99.99,,,-99.99,meteohub,2013-02-17 14:47:00,
2013-02-17 08:52:00,15.8,28.0,28.98,SE,133,4.0,6.0,24,-99.99,,,-99.99,meteohub,2013-02-17 14:52:00,
2013-02-17 08:57:00,16.2,28.0,28.98,ESE,114,5.0,6.0,24,-99.99,,,-99.99,meteohub,2013-02-17 14:57:00,
2013-02-17 09:02:00,16.7,28.2,28.98,SE,141,5.0,6.0,24,-99.99,,,-99.99,meteohub,2013-02-17 15:02:00,
2013-02-17 09:07:00,17.2,28.2,28.95,SE,126,4.0,6.0,24,-99.99,,,-99.99,meteohub,2013-02-17 15:07:00,
2013-02-17 09:13:00,17.8,28.2,28.95,East,95,6.0,6.0,24,-99.99,,,-99.99,meteohub,2013-02-17 15:13:00,
2013-02-17 09:18:00,18.3,28.4,28.95,ESE,122,13.0,13.0,24,-99.99,,,-99.99,meteohub,2013-02-17 15:18:00,
2013-02-17 09:23:00,18.5,28.4,28.95,SSE,147,4.0,13.0,24,-99.99,,,-99.99,meteohub,2013-02-17 15:23:00,
2013-02-17 09:28:00,18.7,28.2,28.95,SE,124,4.0,13.0,24,-99.99,,,-99.99,meteohub,2013-02-17 15:28:00,
2013-02-17 09:33:00,19.4,28.2,28.95,ESE,110,5.0,13.0,24,-99.99,,,-99.99,meteohub,2013-02-17 15:33:00,
2013-02-17 09:39:00,19.4,28.2,28.95,ESE,116,6.0,8.0,24,-99.99,,,-99.99,meteohub,2013-02-17 15:39:00,
2013-02-17 09:44:00,19.6,28.2,28.95,SE,135,5.0,8.0,24,-99.99,,,-99.99,meteohub,2013-02-17 15:44:00,
2013-02-17 09:49:00,19.8,28.0,28.95,SE,130,3.0,8.0,24,-99.99,,,-99.99,meteohub,2013-02-17 15:49:00,
2013-02-17 09:54:00,20.1,28.0,28.95,SSE,147,3.0,8.0,24,-99.99,,,-99.99,meteohub,2013-02-17 15:54:00,
2013-02-17 09:59:00,20.5,28.0,28.95,SSE,161,5.0,8.0,24,-99.99,,,-99.99,meteohub,2013-02-17 15:59:00,
2013-02-17 10:05:00,20.8,27.9,28.95,ESE,115,6.0,8.0,24,-99.99,,,-99.99,meteohub,2013-02-17 16:05:00,
2013-02-17 10:10:00,21.2,27.9,28.95,SE,137,4.0,8.0,24,-99.99,,,-99.99,meteohub,2013-02-17 16:10:00,
2013-02-17 10:15:00,21.6,27.9,28.95,SE,126,4.0,9.0,24,-99.99,,,-99.99,meteohub,2013-02-17 16:15:00,
2013-02-17 10:20:00,21.9,27.9,28.95,SE,126,4.0,9.0,24,-99.99,,,-99.99,meteohub,2013-02-17 16:20:00,
2013-02-17 10:25:00,22.5,27.7,28.95,East,94,8.0,9.0,24,-99.99,,,-99.99,meteohub,2013-02-17 16:25:00,
2013-02-17 10:31:00,22.8,27.7,28.95,ESE,119,4.0,8.0,24,-99.99,,,-99.99,meteohub,2013-02-17 16:31:00,
2013-02-17 10:36:00,23.0,27.7,28.95,ESE,119,4.0,8.0,24,-99.99,,,-99.99,meteohub,2013-02-17 16:36:00,
2013-02-17 10:41:00,23.2,27.7,28.95,East,96,5.0,8.0,24,-99.99,,,-99.99,meteohub,2013-02-17 16:41:00,
2013-02-17 10:46:00,23.5,27.7,28.95,SSE,157,5.0,8.0,24,-99.99,,,-99.99,meteohub,2013-02-17 16:46:00,
2013-02-17 10:52:00,23.7,27.5,28.92,SSE,158,8.0,8.0,24,-99.99,,,-99.99,meteohub,2013-02-17 16:52:00,
2013-02-17 10:57:00,24.4,27.5,28.92,SE,125,4.0,8.0,24,-99.99,,,-99.99,meteohub,2013-02-17 16:57:00,
2013-02-17 11:02:00,24.8,27.5,28.92,SE,138,4.0,8.0,24,-99.99,,,-99.99,meteohub,2013-02-17 17:02:00,
2013-02-17 11:07:00,25.3,27.5,28.92,SE,143,6.0,8.0,24,-99.99,,,-99.99,meteohub,2013-02-17 17:07:00,
2013-02-17 11:12:00,25.7,27.5,28.92,ESE,112,5.0,8.0,24,-99.99,,,-99.99,meteohub,2013-02-17 17:12:00,
2013-02-17 11:17:00,26.1,27.5,28.92,ESE,120,5.0,8.0,24,-99.99,,,-99.99,meteohub,2013-02-17 17:17:00,
2013-02-17 11:22:00,26.4,27.5,28.92,SSE,149,8.0,8.0,24,-99.99,,,-99.99,meteohub,2013-02-17 17:22:00,
2013-02-17 11:27:00,26.6,27.5,28.92,ESE,111,5.0,11.0,24,-99.99,,,-99.99,meteohub,2013-02-17 17:27:00,
2013-02-17 11:32:00,27.0,27.5,28.92,SE,124,7.0,11.0,24,-99.99,,,-99.99,meteohub,2013-02-17 17:32:00,
2013-02-17 11:37:00,27.5,27.3,28.92,ESE,105,4.0,11.0,24,-99.99,,,-99.99,meteohub,2013-02-17 17:37:00,
2013-02-17 11:42:00,27.7,27.3,28.92,ESE,123,4.0,8.0,24,-99.99,,,-99.99,meteohub,2013-02-17 17:42:00,
2013-02-17 11:47:00,27.7,27.3,28.92,ESE,106,4.0,7.0,24,-99.99,,,-99.99,meteohub,2013-02-17 17:47:00,
2013-02-17 11:52:00,28.0,27.3,28.92,ESE,117,3.0,6.0,24,-99.99,,,-99.99,meteohub,2013-02-17 17:52:00,
2013-02-17 11:57:00,28.6,27.3,28.92,SSE,160,4.0,8.0,24,-99.99,,,-99.99,meteohub,2013-02-17 17:57:00,
2013-02-17 12:02:00,28.6,27.1,28.92,SSE,165,3.0,8.0,24,-99.99,,,-99.99,meteohub,2013-02-17 18:02:00,
2013-02-17 12:07:00,28.8,27.1,28.89,SE,137,5.0,8.0,24,-99.99,,,-99.99,meteohub,2013-02-17 18:07:00,
2013-02-17 12:12:00,28.8,27.1,28.89,East,88,5.0,9.0,24,-99.99,,,-99.99,meteohub,2013-02-17 18:12:00,
2013-02-17 12:17:00,29.1,27.1,28.89,SSE,149,6.0,9.0,24,-99.99,,,-99.99,meteohub,2013-02-17 18:17:00,
2013-02-17 12:22:00,29.1,27.1,28.89,SE,144,5.0,9.0,24,-99.99,,,-99.99,meteohub,2013-02-17 18:22:00,
2013-02-17 12:27:00,29.7,27.1,28.89,ESE,113,4.0,11.0,24,-99.99,,,-99.99,meteohub,2013-02-17 18:27:00,
2013-02-17 12:32:00,29.7,27.1,28.89,East,88,4.0,11.0,24,-99.99,,,-99.99,meteohub,2013-02-17 18:32:00,
2013-02-17 12:37:00,29.5,27.0,28.89,ESE,115,4.0,8.0,24,-99.99,,,-99.99,meteohub,2013-02-17 18:37:00,
2013-02-17 12:42:00,29.1,27.0,28.89,ESE,117,6.0,8.0,24,-99.99,,,-99.99,meteohub,2013-02-17 18:42:00,
2013-02-17 12:47:00,29.1,27.0,28.89,SE,125,4.0,8.0,24,-99.99,,,-99.99,meteohub,2013-02-17 18:47:00,
2013-02-17 12:52:00,29.3,27.0,28.86,ESE,106,6.0,8.0,24,-99.99,,,-99.99,meteohub,2013-02-17 18:52:00,
2013-02-17 12:57:00,29.3,27.0,28.86,SE,133,4.0,8.0,24,-99.99,,,-99.99,meteohub,2013-02-17 18:57:00,
2013-02-17 13:02:00,29.5,27.0,28.86,East,98,4.0,9.0,24,-99.99,,,-99.99,meteohub,2013-02-17 19:02:00,
2013-02-17 13:07:00,29.8,27.0,28.86,ESE,119,3.0,9.0,24,-99.99,,,-99.99,meteohub,2013-02-17 19:07:00,
2013-02-17 13:12:00,30.0,26.8,28.86,East,89,8.0,9.0,24,-99.99,,,-99.99,meteohub,2013-02-17 19:12:00,
2013-02-17 13:17:00,29.8,26.8,28.86,ESE,117,5.0,8.0,24,-99.99,,,-99.99,meteohub,2013-02-17 19:17:00,
2013-02-17 13:22:00,30.0,27.0,28.86,ESE,106,5.0,11.0,24,-99.99,,,-99.99,meteohub,2013-02-17 19:22:00,
2013-02-17 13:27:00,30.2,26.8,28.86,SE,132,4.0,11.0,24,-99.99,,,-99.99,meteohub,2013-02-17 19:27:00,
2013-02-17 13:33:00,30.7,26.8,28.86,SSE,157,4.0,11.0,24,-99.99,,,-99.99,meteohub,2013-02-17 19:33:00,
2013-02-17 13:38:00,30.9,26.8,28.86,East,87,6.0,10.0,24,-99.99,,,-99.99,meteohub,2013-02-17 19:38:00,
2013-02-17 13:43:00,30.7,26.8,28.86,SSE,163,4.0,8.0,24,-99.99,,,-99.99,meteohub,2013-02-17 19:43:00,
2013-02-17 13:48:00,31.1,26.8,28.86,ENE,76,4.0,14.0,24,-99.99,,,-99.99,meteohub,2013-02-17 19:48:00,
2013-02-17 13:53:00,31.5,26.8,28.83,ESE,106,5.0,14.0,24,-99.99,,,-99.99,meteohub,2013-02-17 19:53:00,
2013-02-17 13:59:00,31.5,26.8,28.83,SSE,147,5.0,14.0,24,-99.99,,,-99.99,meteohub,2013-02-17 19:59:00,
2013-02-17 14:04:00,31.3,26.6,28.83,SE,142,5.0,10.0,24,-99.99,,,-99.99,meteohub,2013-02-17 20:04:00,
2013-02-17 14:09:00,31.1,26.6,28.83,ESE,120,5.0,10.0,24,-99.99,,,-99.99,meteohub,2013-02-17 20:09:00,
2013-02-17 14:14:00,30.9,26.6,28.83,ESE,115,5.0,10.0,24,-99.99,,,-99.99,meteohub,2013-02-17 20:14:00,
2013-02-17 14:19:00,30.9,26.6,28.83,East,98,6.0,9.0,24,-99.99,,,-99.99,meteohub,2013-02-17 20:19:00,
2013-02-17 14:25:00,31.1,26.6,28.83,SSE,167,5.0,9.0,24,-99.99,,,-99.99,meteohub,2013-02-17 20:25:00,
2013-02-17 14:30:00,31.3,26.6,28.83,ESE,119,4.0,9.0,24,-99.99,,,-99.99,meteohub,2013-02-17 20:30:00,
2013-02-17 14:35:00,32.0,26.6,28.80,SE,134,4.0,9.0,24,-99.99,,,-99.99,meteohub,2013-02-17 20:35:00,
2013-02-17 14:40:00,32.4,26.6,28.80,SE,134,4.0,9.0,24,-99.99,,,-99.99,meteohub,2013-02-17 20:40:00,
2013-02-17 14:46:00,32.4,26.6,28.80,ESE,102,4.0,8.0,24,-99.99,,,-99.99,meteohub,2013-02-17 20:46:00,
2013-02-17 14:51:00,32.2,26.6,28.80,SE,124,5.0,8.0,24,-99.99,,,-99.99,meteohub,2013-02-17 20:51:00,
2013-02-17 14:56:00,32.0,26.6,28.80,SE,144,4.0,8.0,24,-99.99,,,-99.99,meteohub,2013-02-17 20:56:00,
2013-02-17 15:01:00,32.0,26.6,28.80,ESE,114,4.0,8.0,24,-99.99,,,-99.99,meteohub,2013-02-17 21:01:00,
2013-02-17 15:06:00,32.2,26.6,28.80,ESE,115,9.0,9.0,24,-99.99,,,-99.99,meteohub,2013-02-17 21:06:00,
2013-02-17 15:12:00,32.0,26.6,28.80,SE,131,4.0,9.0,24,-99.99,,,-99.99,meteohub,2013-02-17 21:12:00,
2013-02-17 15:17:00,32.2,26.6,28.80,South,170,4.0,9.0,24,-99.99,,,-99.99,meteohub,2013-02-17 21:17:00,
2013-02-17 15:22:00,32.0,26.6,28.80,SE,135,4.0,9.0,24,-99.99,,,-99.99,meteohub,2013-02-17 21:22:00,
2013-02-17 15:27:00,31.8,26.6,28.80,ESE,105,5.0,9.0,24,-99.99,,,-99.99,meteohub,2013-02-17 21:27:00,
2013-02-17 15:32:00,31.8,26.4,28.80,ESE,114,5.0,10.0,24,-99.99,,,-99.99,meteohub,2013-02-17 21:32:00,
2013-02-17 15:37:00,31.8,26.4,28.77,ESE,123,3.0,10.0,24,-99.99,,,-99.99,meteohub,2013-02-17 21:37:00,
2013-02-17 15:42:00,31.6,26.4,28.77,SE,140,6.0,7.0,24,-99.99,,,-99.99,meteohub,2013-02-17 21:42:00,
2013-02-17 15:47:00,31.8,26.4,28.77,ESE,107,4.0,7.0,24,-99.99,,,-99.99,meteohub,2013-02-17 21:47:00,
2013-02-17 15:52:00,31.6,26.4,28.77,SE,124,4.0,8.0,24,-99.99,,,-99.99,meteohub,2013-02-17 21:52:00,
2013-02-17 15:57:00,31.6,26.4,28.77,East,88,5.0,8.0,24,-99.99,,,-99.99,meteohub,2013-02-17 21:57:00,
2013-02-17 16:02:00,31.5,26.4,28.77,SE,124,5.0,8.0,24,-99.99,,,-99.99,meteohub,2013-02-17 22:02:00,
2013-02-17 16:07:00,31.5,26.2,28.77,SE,138,4.0,8.0,24,-99.99,,,-99.99,meteohub,2013-02-17 22:07:00,
2013-02-17 16:12:00,31.5,26.2,28.77,ESE,118,5.0,8.0,24,-99.99,,,-99.99,meteohub,2013-02-17 22:12:00,
2013-02-17 16:17:00,31.3,26.2,28.77,ESE,123,8.0,8.0,24,-99.99,,,-99.99,meteohub,2013-02-17 22:17:00,
2013-02-17 16:22:00,31.3,26.2,28.77,SE,131,6.0,8.0,24,-99.99,,,-99.99,meteohub,2013-02-17 22:22:00,
2013-02-17 16:27:00,31.1,26.2,28.77,ESE,116,5.0,8.0,24,-99.99,,,-99.99,meteohub,2013-02-17 22:27:00,
2013-02-17 16:32:00,31.1,26.2,28.77,East,101,5.0,9.0,24,-99.99,,,-99.99,meteohub,2013-02-17 22:32:00,
2013-02-17 16:37:00,30.9,26.2,28.74,SSE,153,6.0,8.0,24,-99.99,,,-99.99,meteohub,2013-02-17 22:37:00,
2013-02-17 16:42:00,30.9,26.2,28.74,East,79,6.0,8.0,24,-99.99,,,-99.99,meteohub,2013-02-17 22:42:00,
2013-02-17 16:47:00,30.7,26.1,28.74,ESE,102,6.0,8.0,24,-99.99,,,-99.99,meteohub,2013-02-17 22:47:00,
2013-02-17 16:52:00,30.6,26.1,28.74,ESE,112,5.0,9.0,24,-99.99,,,-99.99,meteohub,2013-02-17 22:52:00,
2013-02-17 16:57:00,30.6,26.1,28.74,East,100,5.0,9.0,24,-99.99,,,-99.99,meteohub,2013-02-17 22:57:00,
2013-02-17 17:02:00,30.4,26.1,28.74,East,101,4.0,8.0,24,-99.99,,,-99.99,meteohub,2013-02-17 23:02:00,
2013-02-17 17:07:00,30.4,26.1,28.74,ESE,110,3.0,8.0,24,-99.99,,,-99.99,meteohub,2013-02-17 23:07:00,
2013-02-17 17:12:00,30.2,26.1,28.74,ESE,116,3.0,8.0,24,-99.99,,,-99.99,meteohub,2013-02-17 23:12:00,
2013-02-17 17:17:00,30.0,26.1,28.74,ESE,103,3.0,8.0,24,-99.99,,,-99.99,meteohub,2013-02-17 23:17:00,
2013-02-17 17:22:00,29.8,26.1,28.74,SSE,151,6.0,8.0,24,-99.99,,,-99.99,meteohub,2013-02-17 23:22:00,
2013-02-17 17:27:00,29.8,26.1,28.74,SE,140,4.0,8.0,24,-99.99,,,-99.99,meteohub,2013-02-17 23:27:00,
2013-02-17 17:32:00,29.7,26.1,28.74,SSE,168,4.0,8.0,24,-99.99,,,-99.99,meteohub,2013-02-17 23:32:00,
2013-02-17 17:37:00,29.5,26.1,28.71,ESE,118,4.0,8.0,24,-99.99,,,-99.99,meteohub,2013-02-17 23:37:00,
2013-02-17 17:42:00,29.5,26.1,28.71,SE,135,5.0,8.0,24,-99.99,,,-99.99,meteohub,2013-02-17 23:42:00,
2013-02-17 17:47:00,29.5,26.1,28.71,SSE,159,6.0,8.0,24,-99.99,,,-99.99,meteohub,2013-02-17 23:47:00,
2013-02-17 17:53:00,29.3,25.9,28.74,SE,139,5.0,8.0,24,-99.99,,,-99.99,meteohub,2013-02-17 23:53:00,
2013-02-17 17:58:00,29.3,25.9,28.74,ESE,119,4.0,8.0,24,-99.99,,,-99.99,meteohub,2013-02-17 23:58:00,
2013-02-17 18:03:00,29.1,25.9,28.74,East,91,5.0,8.0,24,-99.99,,,-99.99,meteohub,2013-02-18 00:03:00,
2013-02-17 18:08:00,29.1,25.9,28.71,SE,126,6.0,8.0,24,-99.99,,,-99.99,meteohub,2013-02-18 00:08:00,
2013-02-17 18:14:00,28.9,25.9,28.71,ESE,122,4.0,6.0,24,-99.99,,,-99.99,meteohub,2013-02-18 00:14:00,
2013-02-17 18:19:00,28.8,25.7,28.71,ESE,102,5.0,6.0,24,-99.99,,,-99.99,meteohub,2013-02-18 00:19:00,
2013-02-17 18:24:00,28.8,25.9,28.71,ENE,70,5.0,6.0,24,-99.99,,,-99.99,meteohub,2013-02-18 00:24:00,
2013-02-17 18:29:00,28.8,25.7,28.71,SE,137,3.0,8.0,24,-99.99,,,-99.99,meteohub,2013-02-18 00:29:00,
2013-02-17 18:35:00,28.8,25.7,28.71,ESE,123,4.0,8.0,24,-99.99,,,-99.99,meteohub,2013-02-18 00:35:00,
2013-02-17 18:40:00,28.8,25.7,28.71,SSE,162,4.0,8.0,24,-99.99,,,-99.99,meteohub,2013-02-18 00:40:00,
2013-02-17 18:45:00,28.6,25.7,28.71,ESE,123,6.0,8.0,24,-99.99,,,-99.99,meteohub,2013-02-18 00:45:00,
2013-02-17 18:50:00,28.6,25.7,28.71,ESE,123,5.0,6.0,24,-99.99,,,-99.99,meteohub,2013-02-18 00:50:00,
2013-02-17 18:55:00,28.6,25.7,28.71,ESE,123,5.0,6.0,24,-99.99,,,-99.99,meteohub,2013-02-18 00:55:00,
2013-02-17 19:01:00,28.6,25.7,28.71,ESE,115,6.0,6.0,24,-99.99,,,-99.99,meteohub,2013-02-18 01:01:00,
2013-02-17 19:06:00,28.6,25.5,28.71,East,98,4.0,7.0,24,-99.99,,,-99.99,meteohub,2013-02-18 01:06:00,
2013-02-17 19:11:00,28.4,25.5,28.71,ESE,105,4.0,7.0,24,-99.99,,,-99.99,meteohub,2013-02-18 01:11:00,
2013-02-17 19:16:00,28.4,25.5,28.71,SE,141,4.0,9.0,24,-99.99,,,-99.99,meteohub,2013-02-18 01:16:00,
2013-02-17 19:21:00,28.4,25.5,28.71,ESE,117,5.0,8.0,24,-99.99,,,-99.99,meteohub,2013-02-18 01:21:00,
2013-02-17 19:27:00,28.4,25.5,28.71,East,100,3.0,8.0,24,-99.99,,,-99.99,meteohub,2013-02-18 01:27:00,
2013-02-17 19:32:00,28.2,25.5,28.71,East,86,5.0,7.0,24,-99.99,,,-99.99,meteohub,2013-02-18 01:32:00,
2013-02-17 19:37:00,28.2,25.5,28.71,SE,144,4.0,7.0,24,-99.99,,,-99.99,meteohub,2013-02-18 01:37:00,
2013-02-17 19:42:00,28.4,25.5,28.71,SE,124,4.0,8.0,24,-99.99,,,-99.99,meteohub,2013-02-18 01:42:00,
2013-02-17 19:47:00,28.2,25.5,28.71,ESE,106,6.0,8.0,24,-99.99,,,-99.99,meteohub,2013-02-18 01:47:00,
2013-02-17 19:52:00,28.4,25.5,28.71,ESE,105,4.0,9.0,24,-99.99,,,-99.99,meteohub,2013-02-18 01:52:00,
2013-02-17 19:57:00,28.4,25.5,28.71,East,97,4.0,9.0,24,-99.99,,,-99.99,meteohub,2013-02-18 01:57:00,
2013-02-17 20:02:00,28.2,25.5,28.71,SE,124,4.0,8.0,24,-99.99,,,-99.99,meteohub,2013-02-18 02:02:00,
2013-02-17 20:07:00,28.2,25.5,28.71,ESE,111,6.0,8.0,24,-99.99,,,-99.99,meteohub,2013-02-18 02:07:00,
2013-02-17 20:12:00,28.2,25.5,28.71,SE,141,6.0,9.0,24,-99.99,,,-99.99,meteohub,2013-02-18 02:12:00,
2013-02-17 20:17:00,28.4,25.5,28.71,East,86,6.0,9.0,24,-99.99,,,-99.99,meteohub,2013-02-18 02:17:00,
2013-02-17 20:22:00,28.4,25.5,28.71,SE,126,3.0,8.0,24,-99.99,,,-99.99,meteohub,2013-02-18 02:22:00,
2013-02-17 20:27:00,28.4,25.5,28.71,ESE,115,4.0,8.0,24,-99.99,,,-99.99,meteohub,2013-02-18 02:27:00,
2013-02-17 20:32:00,28.4,25.5,28.71,SE,137,4.0,8.0,24,-99.99,,,-99.99,meteohub,2013-02-18 02:32:00,
2013-02-17 20:37:00,28.4,25.5,28.71,ESE,111,5.0,8.0,24,-99.99,,,-99.99,meteohub,2013-02-18 02:37:00,
2013-02-17 20:42:00,28.4,25.5,28.71,SE,133,5.0,8.0,24,-99.99,,,-99.99,meteohub,2013-02-18 02:42:00,
2013-02-17 20:47:00,28.4,25.5,28.71,SSE,149,5.0,8.0,24,-99.99,,,-99.99,meteohub,2013-02-18 02:47:00,
2013-02-17 20:52:00,28.4,25.5,28.69,East,97,4.0,11.0,24,-99.99,,,-99.99,meteohub,2013-02-18 02:52:00,
2013-02-17 20:57:00,28.2,25.5,28.69,ESE,114,3.0,11.0,24,-99.99,,,-99.99,meteohub,2013-02-18 02:57:00,
2013-02-17 21:02:00,28.2,25.5,28.69,ESE,123,3.0,8.0,24,-99.99,,,-99.99,meteohub,2013-02-18 03:02:00,
2013-02-17 21:07:00,28.2,25.5,28.69,SE,125,4.0,8.0,24,-99.99,,,-99.99,meteohub,2013-02-18 03:07:00,
2013-02-17 21:12:00,28.0,25.3,28.69,ESE,112,5.0,8.0,24,-99.99,,,-99.99,meteohub,2013-02-18 03:12:00,
2013-02-17 21:17:00,28.0,25.3,28.69,SE,128,5.0,8.0,24,-99.99,,,-99.99,meteohub,2013-02-18 03:17:00,
2013-02-17 21:22:00,28.0,25.3,28.69,ESE,122,4.0,8.0,24,-99.99,,,-99.99,meteohub,2013-02-18 03:22:00,
2013-02-17 21:27:00,28.0,25.3,28.69,ESE,116,3.0,8.0,24,-99.99,,,-99.99,meteohub,2013-02-18 03:27:00,
2013-02-17 21:32:00,27.9,25.3,28.69,ESE,109,3.0,8.0,24,-99.99,,,-99.99,meteohub,2013-02-18 03:32:00,
2013-02-17 21:37:00,27.9,25.5,28.69,SSE,154,5.0,8.0,24,-99.99,,,-99.99,meteohub,2013-02-18 03:37:00,
2013-02-17 21:42:00,27.9,26.6,28.69,ESE,116,4.0,8.0,25,-99.99,,,-99.99,meteohub,2013-02-18 03:42:00,
2013-02-17 21:47:00,27.9,26.8,28.69,ENE,61,4.0,8.0,25,-99.99,,,-99.99,meteohub,2013-02-18 03:47:00,
2013-02-17 21:52:00,27.9,26.8,28.69,East,96,4.0,7.0,25,-99.99,,,-99.99,meteohub,2013-02-18 03:52:00,
2013-02-17 21:57:00,27.9,27.0,28.69,SE,124,4.0,9.0,25,-99.99,,,-99.99,meteohub,2013-02-18 03:57:00,
2013-02-17 22:02:00,27.9,27.1,28.69,ESE,102,6.0,9.0,25,-99.99,,,-99.99,meteohub,2013-02-18 04:02:00,
2013-02-17 22:07:00,28.0,27.1,28.66,ESE,108,3.0,9.0,25,-99.99,,,-99.99,meteohub,2013-02-18 04:07:00,
2013-02-17 22:12:00,28.0,27.3,28.66,East,92,6.0,8.0,25,-99.99,,,-99.99,meteohub,2013-02-18 04:12:00,
2013-02-17 22:17:00,28.0,27.5,28.66,ESE,115,4.0,9.0,25,-99.99,,,-99.99,meteohub,2013-02-18 04:17:00,
2013-02-17 22:22:00,28.0,27.7,28.66,ESE,117,5.0,9.0,25,-99.99,,,-99.99,meteohub,2013-02-18 04:22:00,
2013-02-17 22:27:00,28.0,27.7,28.66,SE,132,4.0,9.0,25,-99.99,,,-99.99,meteohub,2013-02-18 04:27:00,
2013-02-17 22:32:00,28.0,26.8,28.66,ESE,105,4.0,6.0,24,-99.99,,,-99.99,meteohub,2013-02-18 04:32:00,
2013-02-17 22:37:00,28.0,26.8,28.66,ESE,115,4.0,6.0,24,-99.99,,,-99.99,meteohub,2013-02-18 04:37:00,
2013-02-17 22:42:00,28.0,28.0,28.66,East,81,5.0,6.0,25,-99.99,,,-99.99,meteohub,2013-02-18 04:42:00,
2013-02-17 22:47:00,28.0,28.0,28.66,ESE,108,4.0,6.0,25,-99.99,,,-99.99,meteohub,2013-02-18 04:47:00,
2013-02-17 22:52:00,28.0,28.2,28.66,East,82,5.0,7.0,25,-99.99,,,-99.99,meteohub,2013-02-18 04:52:00,
2013-02-17 22:57:00,27.9,28.2,28.66,SE,135,8.0,8.0,25,-99.99,,,-99.99,meteohub,2013-02-18 04:57:00,
2013-02-17 23:00:00,27.9,28.2,28.66,ESE,118,4.0,7.0,25,-99.99,,,-99.99,meteohub,2013-02-18 05:00:00,
2013-02-17 23:01:00,27.9,28.4,28.66,ESE,117,6.0,7.0,25,-99.99,,,-99.99,meteohub,2013-02-18 05:01:00,
2013-02-17 23:06:00,27.9,28.4,28.66,East,91,4.0,8.0,25,-99.99,,,-99.99,meteohub,2013-02-18 05:06:00,
2013-02-17 23:12:00,27.9,28.4,28.66,ENE,78,4.0,8.0,25,-99.99,,,-99.99,meteohub,2013-02-18 05:12:00,
2013-02-17 23:17:00,27.9,28.4,28.66,ESE,117,4.0,8.0,25,-99.99,,,-99.99,meteohub,2013-02-18 05:17:00,
2013-02-17 23:22:00,27.9,28.4,28.63,East,91,8.0,8.0,25,-99.99,,,-99.99,meteohub,2013-02-18 05:22:00,
2013-02-17 23:27:00,27.9,28.4,28.63,ESE,103,4.0,8.0,25,-99.99,,,-99.99,meteohub,2013-02-18 05:27:00,
2013-02-17 23:32:00,27.9,28.4,28.63,SE,135,5.0,9.0,25,-99.99,,,-99.99,meteohub,2013-02-18 05:32:00,
2013-02-17 23:37:00,27.9,28.4,28.63,East,89,6.0,9.0,25,-99.99,,,-99.99,meteohub,2013-02-18 05:37:00,
2013-02-17 23:42:00,27.9,28.4,28.63,ESE,108,4.0,8.0,25,-99.99,,,-99.99,meteohub,2013-02-18 05:42:00,
2013-02-17 23:47:00,27.9,28.4,28.63,SE,125,5.0,8.0,25,-99.99,,,-99.99,meteohub,2013-02-18 05:47:00,
2013-02-17 23:52:00,27.9,28.6,28.63,ESE,117,4.0,8.0,25,-99.99,,,-99.99,meteohub,2013-02-18 05:52:00,
2013-02-17 23:57:00,27.9,28.6,28.63,East,85,4.0,8.0,25,-99.99,,,-99.99,meteohub,2013-02-18 05:57:00,